| time (UTC) | temp F | wind direction | speed MPH | gust MPH | rain 1hr in | rain 24hr in | rain mn in | humidity % | barometer mb |
| 20260507084916 | 55 | 357 | 0.0 | 0.0 | 0.00 | 0.00 | 0.00 | 89 | 1016.1 |
| 20260507084604 | 54 | 357 | 0.0 | 1.0 | 0.00 | 0.00 | 0.00 | 90 | 1016.3 |
| 20260507083921 | 54 | 357 | 0.0 | 0.0 | 0.00 | 0.00 | 0.00 | 89 | 1016.3 |
| 20260507083010 | 54 | 357 | 0.0 | 1.0 | 0.00 | 0.00 | 0.00 | 89 | 1016.4 |
| 20260507082919 | 54 | 357 | 0.0 | 0.0 | 0.00 | 0.00 | 0.00 | 89 | 1016.3 |
| 20260507081907 | 55 | 357 | 0.0 | 0.0 | 0.00 | 0.00 | 0.00 | 88 | 1016.5 |
| 20260507081603 | 55 | 356 | 0.0 | 1.0 | 0.00 | 0.00 | 0.00 | 89 | 1016.5 |
| 20260507080835 | 55 | 358 | 0.0 | 0.0 | 0.00 | 0.00 | 0.00 | 91 | 1016.5 |
| 20260507075801 | 54 | 359 | 0.0 | 0.0 | 0.00 | 0.00 | 0.00 | 91 | 1016.4 |
| 20260507074810 | 54 | 233 | 0.0 | 0.0 | 0.00 | 0.00 | 0.00 | 91 | 1016.5 |
| 20260507074503 | 54 | 233 | 0.0 | 1.0 | 0.00 | 0.00 | 0.00 | 91 | 1016.6 |
| 20260507073824 | 54 | 233 | 0.0 | 0.0 | 0.00 | 0.00 | 0.00 | 91 | 1016.5 |
| 20260507073110 | 54 | 233 | 0.0 | 1.0 | 0.00 | 0.00 | 0.00 | 91 | 1016.6 |
| 20260507072757 | 54 | 233 | 0.0 | 0.0 | 0.00 | 0.00 | 0.00 | 91 | 1016.5 |
| 20260507071757 | 55 | 233 | 0.0 | 0.0 | 0.00 | 0.00 | 0.00 | 90 | 1016.5 |
| 20260507071507 | 55 | 233 | 0.0 | 1.0 | 0.00 | 0.00 | 0.00 | 91 | 1016.7 |
| 20260507070728 | 55 | 233 | 0.0 | 0.0 | 0.00 | 0.00 | 0.00 | 90 | 1016.6 |
| 20260507070012 | 54 | 233 | 0.0 | 1.0 | 0.00 | 0.00 | 0.00 | 90 | 1016.7 |
| 20260507065736 | 54 | 233 | 0.0 | 0.0 | 0.00 | 0.00 | 0.00 | 90 | 1016.6 |
| 20260507064719 | 54 | 233 | 0.0 | 0.0 | 0.00 | 0.00 | 0.00 | 89 | 1016.7 |
| 20260507064606 | 54 | 233 | 0.0 | 1.0 | 0.00 | 0.00 | 0.00 | 89 | 1016.8 |
| 20260507063723 | 55 | 233 | 0.0 | 0.0 | 0.00 | 0.00 | 0.00 | 90 | 1016.7 |
| 20260507063002 | 54 | 233 | 0.0 | 1.0 | 0.00 | 0.00 | 0.00 | 88 | 1016.8 |
| 20260507062703 | 55 | 233 | 0.0 | 0.0 | 0.00 | 0.00 | 0.00 | 89 | 1016.7 |
| 20260507061653 | 55 | 233 | 0.0 | 0.0 | 0.00 | 0.00 | 0.00 | 88 | 1016.6 |
| 20260507061604 | 54 | 233 | 0.0 | 0.0 | 0.00 | 0.00 | 0.00 | 88 | 1016.7 |
| 20260507055457 | 55 | 233 | 0.0 | 0.0 | 0.00 | 0.00 | 0.00 | 87 | 1016.7 |
| 20260507054507 | 55 | 233 | 0.0 | 0.0 | 0.00 | 0.00 | 0.00 | 86 | 1016.7 |
| 20260507054503 | 55 | 233 | 0.0 | 1.0 | 0.00 | 0.00 | 0.00 | 86 | 1016.8 |
| 20260507053432 | 55 | 233 | 0.0 | 0.0 | 0.00 | 0.00 | 0.00 | 85 | 1016.7 |
| 20260507053104 | 55 | 233 | 0.0 | 1.0 | 0.00 | 0.00 | 0.00 | 85 | 1016.8 |
| 20260507052418 | 56 | 233 | 0.0 | 0.0 | 0.00 | 0.00 | 0.00 | 85 | 1016.7 |
| 20260507051503 | 55 | 233 | 0.0 | 1.0 | 0.00 | 0.00 | 0.00 | 85 | 1016.7 |
| 20260507051413 | 56 | 233 | 0.0 | 0.0 | 0.00 | 0.00 | 0.00 | 85 | 1016.7 |
| 20260507050429 | 56 | 232 | 0.0 | 0.0 | 0.00 | 0.00 | 0.00 | 84 | 1016.7 |
| 20260507050007 | 55 | 232 | 0.0 | 1.0 | 0.00 | 0.00 | 0.00 | 83 | 1016.6 |
| 20260507045437 | 56 | 233 | 0.0 | 0.0 | 0.00 | 0.00 | 0.00 | 83 | 1016.6 |
| 20260507044602 | 55 | 232 | 0.0 | 1.0 | 0.00 | 0.00 | 0.00 | 82 | 1016.7 |
| 20260507044434 | 56 | 232 | 0.0 | 0.0 | 0.00 | 0.00 | 0.00 | 82 | 1016.6 |
| 20260507043424 | 56 | 232 | 0.0 | 0.0 | 0.00 | 0.00 | 0.00 | 81 | 1016.5 |
| 20260507043002 | 56 | 232 | 0.0 | 1.0 | 0.00 | 0.00 | 0.00 | 82 | 1016.5 |
| 20260507042414 | 57 | 233 | 0.0 | 0.0 | 0.00 | 0.00 | 0.00 | 81 | 1016.4 |
| 20260507041602 | 56 | 232 | 0.0 | 0.0 | 0.00 | 0.00 | 0.00 | 80 | 1016.5 |
| 20260507041342 | 57 | 232 | 0.0 | 0.0 | 0.00 | 0.00 | 0.00 | 80 | 1016.4 |
| 20260507040402 | 57 | 232 | 0.0 | 0.0 | 0.00 | 0.00 | 0.00 | 80 | 1016.4 |
| 20260507040111 | 57 | 232 | 0.0 | 0.0 | 0.00 | 0.00 | 0.00 | 79 | 1016.5 |
| 20260507035356 | 58 | 232 | 0.0 | 0.0 | 0.00 | 0.00 | 0.00 | 79 | 1016.3 |
| 20260507034505 | 57 | 232 | 0.0 | 1.0 | 0.00 | 0.00 | 0.00 | 79 | 1016.3 |
| 20260507033103 | 58 | 232 | 0.0 | 0.0 | 0.00 | 0.00 | 0.00 | 78 | 1016.0 |
| 20260507032039 | 59 | 232 | 0.0 | 0.0 | 0.00 | 0.00 | 0.00 | 77 | 1015.9 |
| 20260507031011 | 59 | 232 | 0.0 | 0.0 | 0.00 | 0.00 | 0.00 | 77 | 1015.8 |
| 20260507025954 | 60 | 232 | 0.0 | 0.0 | 0.00 | 0.00 | 0.00 | 76 | 1015.7 |
| 20260507024959 | 60 | 232 | 0.0 | 0.0 | 0.00 | 0.00 | 0.00 | 76 | 1015.7 |
| 20260507024503 | 60 | 232 | 0.0 | 0.0 | 0.00 | 0.00 | 0.00 | 75 | 1015.7 |
| 20260507024017 | 61 | 232 | 0.0 | 0.0 | 0.00 | 0.00 | 0.00 | 75 | 1015.6 |
| 20260507023004 | 61 | 232 | 0.0 | 0.0 | 0.00 | 0.00 | 0.00 | 75 | 1015.5 |
| 20260507021929 | 61 | 220 | 0.0 | 1.0 | 0.00 | 0.00 | 0.00 | 74 | 1015.5 |
| 20260507021618 | 61 | 222 | 0.0 | 2.0 | 0.00 | 0.00 | 0.00 | 74 | 1015.5 |
| 20260507020907 | 62 | 236 | 0.0 | 0.0 | 0.00 | 0.00 | 0.00 | 73 | 1015.4 |
| 20260507015914 | 62 | 150 | 0.0 | 3.0 | 0.00 | 0.00 | 0.00 | 72 | 1015.4 |
| 20260507014906 | 63 | 210 | 0.0 | 1.0 | 0.00 | 0.00 | 0.00 | 70 | 1015.3 |
| 20260507014503 | 62 | 240 | 0.0 | 2.0 | 0.00 | 0.00 | 0.00 | 70 | 1015.3 |
| 20260507013843 | 63 | 196 | 1.0 | 4.0 | 0.00 | 0.00 | 0.00 | 70 | 1015.2 |
| 20260507013102 | 63 | 151 | 1.0 | 5.0 | 0.00 | 0.00 | 0.00 | 68 | 1015.2 |
| 20260507012827 | 63 | 169 | 1.0 | 4.0 | 0.00 | 0.00 | 0.00 | 68 | 1015.2 |
| 20260507011836 | 64 | 205 | 1.0 | 5.0 | 0.00 | 0.00 | 0.00 | 68 | 1015.2 |
| 20260507011506 | 63 | 215 | 2.0 | 7.0 | 0.00 | 0.00 | 0.00 | 68 | 1015.2 |
| 20260507010839 | 64 | 275 | 1.0 | 6.0 | 0.00 | 0.00 | 0.00 | 67 | 1015.0 |
| 20260507010002 | 64 | 133 | 3.0 | 7.0 | 0.00 | 0.00 | 0.00 | 66 | 1015.0 |
| 20260507005843 | 65 | 186 | 1.0 | 9.0 | 0.00 | 0.00 | 0.00 | 66 | 1015.0 |
| 20260507004831 | 65 | 165 | 3.0 | 9.0 | 0.00 | 0.00 | 0.00 | 66 | 1015.1 |
| 20260507004602 | 64 | 255 | 4.0 | 10.0 | 0.00 | 0.00 | 0.00 | 65 | 1015.1 |
| 20260507003850 | 65 | 160 | 1.0 | 6.0 | 0.00 | 0.00 | 0.00 | 66 | 1015.0 |
| 20260507003002 | 65 | 206 | 0.0 | 5.0 | 0.00 | 0.00 | 0.00 | 67 | 1015.1 |
| 20260507002842 | 65 | 235 | 2.0 | 7.0 | 0.00 | 0.00 | 0.00 | 66 | 1015.1 |
| 20260507001608 | 65 | 240 | 3.0 | 7.0 | 0.00 | 0.00 | 0.00 | 64 | 1015.2 |
| 20260507000711 | 66 | 134 | 2.0 | 8.0 | 0.00 | 0.00 | 0.00 | 63 | 1015.0 |
| 20260506235714 | 67 | 259 | 1.0 | 7.0 | 0.00 | 0.00 | 0.00 | 62 | 1015.1 |
| 20260506234735 | 66 | 207 | 3.0 | 10.0 | 0.00 | 0.00 | 0.00 | 62 | 1015.1 |
| 20260506234627 | 66 | 219 | 4.0 | 8.0 | 0.00 | 0.00 | 0.00 | 62 | 1015.1 |
| 20260506233733 | 66 | 214 | 4.0 | 10.0 | 0.00 | 0.00 | 0.00 | 63 | 1015.0 |
| 20260506233003 | 66 | 221 | 4.0 | 10.0 | 0.00 | 0.00 | 0.00 | 63 | 1015.1 |
| 20260506232750 | 67 | 257 | 3.0 | 10.0 | 0.00 | 0.00 | 0.00 | 63 | 1015.2 |
| 20260506231735 | 68 | 195 | 3.0 | 10.0 | 0.00 | 0.00 | 0.00 | 61 | 1015.1 |
| 20260506231602 | 67 | 200 | 5.0 | 11.0 | 0.00 | 0.00 | 0.00 | 61 | 1015.2 |
| 20260506230754 | 68 | 200 | 3.0 | 8.0 | 0.00 | 0.00 | 0.00 | 61 | 1015.1 |
| 20260506225744 | 68 | 238 | 4.0 | 12.0 | 0.00 | 0.00 | 0.00 | 60 | 1015.2 |
| 20260506224805 | 68 | 223 | 4.0 | 12.0 | 0.00 | 0.00 | 0.00 | 60 | 1015.3 |
| 20260506224504 | 68 | 195 | 6.0 | 13.0 | 0.00 | 0.00 | 0.00 | 59 | 1015.4 |
| 20260506223804 | 69 | 238 | 4.0 | 9.0 | 0.00 | 0.00 | 0.00 | 58 | 1015.4 |
| 20260506223103 | 69 | 207 | 4.0 | 9.0 | 0.00 | 0.00 | 0.00 | 57 | 1015.5 |
| 20260506222825 | 70 | 239 | 3.0 | 8.0 | 0.00 | 0.00 | 0.00 | 58 | 1015.5 |
| 20260506221843 | 69 | 157 | 4.0 | 11.0 | 0.00 | 0.00 | 0.00 | 59 | 1015.7 |
| 20260506221504 | 69 | 221 | 5.0 | 11.0 | 0.00 | 0.00 | 0.00 | 58 | 1015.8 |
| 20260506220813 | 69 | 231 | 5.0 | 11.0 | 0.00 | 0.00 | 0.00 | 59 | 1015.7 |
| 20260506220003 | 69 | 176 | 4.0 | 10.0 | 0.00 | 0.00 | 0.00 | 57 | 1016.0 |
| 20260506215818 | 70 | 214 | 4.0 | 8.0 | 0.00 | 0.00 | 0.00 | 57 | 1015.9 |
| 20260506214805 | 70 | 186 | 4.0 | 10.0 | 0.00 | 0.00 | 0.00 | 60 | 1016.0 |
| 20260506214603 | 69 | 291 | 5.0 | 11.0 | 0.00 | 0.00 | 0.00 | 58 | 1016.1 |
| 20260506213759 | 70 | 169 | 4.0 | 10.0 | 0.00 | 0.00 | 0.00 | 59 | 1016.0 |
| 20260506213002 | 70 | 244 | 4.0 | 9.0 | 0.00 | 0.00 | 0.00 | 58 | 1016.2 |
| 20260506212823 | 70 | 188 | 3.0 | 10.0 | 0.00 | 0.00 | 0.00 | 58 | 1016.2 |
| 20260506211824 | 70 | 167 | 3.0 | 10.0 | 0.00 | 0.00 | 0.00 | 58 | 1016.2 |
| 20260506211605 | 69 | 207 | 4.0 | 11.0 | 0.00 | 0.00 | 0.00 | 60 | 1016.3 |
| 20260506210831 | 70 | 234 | 4.0 | 10.0 | 0.00 | 0.00 | 0.00 | 59 | 1016.4 |
| 20260506205844 | 71 | 195 | 3.0 | 10.0 | 0.00 | 0.00 | 0.00 | 58 | 1016.4 |
| 20260506204831 | 71 | 239 | 2.0 | 7.0 | 0.00 | 0.00 | 0.00 | 57 | 1016.5 |
| 20260506204503 | 70 | 229 | 2.0 | 7.0 | 0.00 | 0.00 | 0.00 | 58 | 1016.6 |
| 20260506203845 | 70 | 284 | 2.0 | 9.0 | 0.00 | 0.00 | 0.00 | 59 | 1016.5 |
| 20260506203103 | 69 | 271 | 3.0 | 10.0 | 0.00 | 0.00 | 0.00 | 60 | 1016.7 |
| 20260506202842 | 69 | 184 | 4.0 | 11.0 | 0.00 | 0.00 | 0.00 | 60 | 1016.6 |
| 20260506201807 | 69 | 261 | 4.0 | 11.0 | 0.00 | 0.00 | 0.00 | 62 | 1016.8 |
| 20260506201502 | 69 | 211 | 6.0 | 12.0 | 0.00 | 0.00 | 0.00 | 60 | 1016.9 |
| 20260506200758 | 70 | 232 | 3.0 | 10.0 | 0.00 | 0.00 | 0.00 | 61 | 1016.8 |
| 20260506200004 | 69 | 233 | 5.0 | 11.0 | 0.00 | 0.00 | 0.00 | 60 | 1017.0 |
| 20260506195728 | 69 | 203 | 3.0 | 8.0 | 0.00 | 0.00 | 0.00 | 61 | 1016.8 |
| 20260506194729 | 69 | 214 | 4.0 | 12.0 | 0.00 | 0.00 | 0.00 | 62 | 1017.0 |
| 20260506194624 | 69 | 193 | 4.0 | 11.0 | 0.00 | 0.00 | 0.00 | 61 | 1017.1 |
| 20260506193736 | 69 | 176 | 4.0 | 12.0 | 0.00 | 0.00 | 0.00 | 62 | 1017.1 |
| 20260506193003 | 70 | 217 | 6.0 | 10.0 | 0.00 | 0.00 | 0.00 | 60 | 1017.3 |
| 20260506192741 | 71 | 228 | 2.0 | 6.0 | 0.00 | 0.00 | 0.00 | 57 | 1017.2 |
| 20260506191713 | 70 | 172 | 1.0 | 7.0 | 0.00 | 0.00 | 0.00 | 58 | 1017.3 |
| 20260506191606 | 69 | 179 | 2.0 | 6.0 | 0.00 | 0.00 | 0.00 | 58 | 1017.3 |
| 20260506185555 | 68 | 207 | 2.0 | 7.0 | 0.00 | 0.00 | 0.00 | 61 | 1017.5 |
| 20260506184537 | 68 | 200 | 2.0 | 7.0 | 0.00 | 0.00 | 0.00 | 61 | 1017.6 |
| 20260506184502 | 68 | 176 | 1.0 | 7.0 | 0.00 | 0.00 | 0.00 | 61 | 1017.6 |
| 20260506183544 | 68 | 195 | 2.0 | 7.0 | 0.00 | 0.00 | 0.00 | 60 | 1017.6 |
| 20260506183107 | 67 | 268 | 3.0 | 6.0 | 0.00 | 0.00 | 0.00 | 61 | 1017.6 |
| 20260506181502 | 67 | 141 | 2.0 | 6.0 | 0.00 | 0.00 | 0.00 | 63 | 1017.8 |
| 20260506181440 | 67 | 186 | 1.0 | 5.0 | 0.00 | 0.00 | 0.00 | 65 | 1017.7 |
| 20260506180424 | 66 | 188 | 1.0 | 6.0 | 0.00 | 0.00 | 0.00 | 63 | 1017.9 |
| 20260506180008 | 65 | 148 | 2.0 | 7.0 | 0.00 | 0.00 | 0.00 | 64 | 1017.9 |
| 20260506174604 | 64 | 214 | 2.0 | 7.0 | 0.00 | 0.00 | 0.00 | 66 | 1017.9 |
| 20260506174324 | 65 | 213 | 1.0 | 5.0 | 0.00 | 0.00 | 0.00 | 66 | 1017.8 |
| 20260506173002 | 63 | 276 | 0.0 | 4.0 | 0.00 | 0.00 | 0.00 | 69 | 1017.9 |
| 20260506172119 | 64 | 210 | 1.0 | 4.0 | 0.00 | 0.00 | 0.00 | 68 | 1017.9 |
| 20260506171602 | 63 | 219 | 1.0 | 5.0 | 0.00 | 0.00 | 0.00 | 71 | 1017.9 |
| 20260506171053 | 63 | 181 | 1.0 | 5.0 | 0.00 | 0.00 | 0.00 | 71 | 1017.8 |
| 20260506170103 | 62 | 269 | 2.0 | 6.0 | 0.00 | 0.00 | 0.00 | 73 | 1017.9 |
| 20260506170043 | 62 | 262 | 1.0 | 5.0 | 0.00 | 0.00 | 0.00 | 73 | 1017.9 |
| 20260506165042 | 61 | 217 | 0.0 | 4.0 | 0.00 | 0.00 | 0.00 | 73 | 1017.8 |
| 20260506164502 | 61 | 241 | 1.0 | 4.0 | 0.00 | 0.00 | 0.00 | 73 | 1017.9 |
| 20260506163106 | 60 | 215 | 3.0 | 6.0 | 0.00 | 0.00 | 0.00 | 75 | 1017.8 |
| 20260506162925 | 60 | 233 | 2.0 | 6.0 | 0.00 | 0.00 | 0.00 | 76 | 1017.8 |
| 20260506161504 | 60 | 207 | 3.0 | 7.0 | 0.00 | 0.00 | 0.00 | 77 | 1017.9 |
| 20260506160823 | 60 | 216 | 1.0 | 5.0 | 0.00 | 0.00 | 0.00 | 78 | 1017.8 |
| 20260506160003 | 59 | 153 | 2.0 | 5.0 | 0.00 | 0.00 | 0.00 | 80 | 1018.0 |
| 20260506155758 | 59 | 238 | 0.0 | 4.0 | 0.00 | 0.00 | 0.00 | 79 | 1017.9 |
| 20260506154755 | 60 | 207 | 0.0 | 1.0 | 0.00 | 0.00 | 0.00 | 80 | 1018.0 |
| 20260506154602 | 59 | 175 | 0.0 | 2.0 | 0.00 | 0.00 | 0.00 | 80 | 1018.0 |
| 20260506153722 | 58 | 156 | 0.0 | 2.0 | 0.00 | 0.00 | 0.00 | 83 | 1018.0 |
| 20260506153002 | 57 | 197 | 1.0 | 4.0 | 0.00 | 0.00 | 0.00 | 83 | 1017.9 |
| 20260506152659 | 58 | 150 | 1.0 | 3.0 | 0.00 | 0.00 | 0.00 | 84 | 1017.9 |
| 20260506151639 | 56 | 179 | 0.0 | 2.0 | 0.00 | 0.00 | 0.00 | 87 | 1017.9 |
| 20260506151611 | 56 | 179 | 0.0 | 3.0 | 0.00 | 0.00 | 0.00 | 87 | 1018.0 |
| 20260506150623 | 56 | 199 | 0.0 | 2.0 | 0.00 | 0.00 | 0.00 | 88 | 1017.9 |
| 20260506150108 | 55 | 157 | 1.0 | 2.0 | 0.00 | 0.00 | 0.00 | 89 | 1018.0 |
| 20260506144502 | 55 | 141 | 0.0 | 1.0 | 0.00 | 0.00 | 0.00 | 90 | 1018.1 |
| 20260506144454 | 55 | 141 | 0.0 | 0.0 | 0.00 | 0.00 | 0.00 | 90 | 1018.0 |
| 20260506143444 | 55 | 45 | 0.0 | 0.0 | 0.00 | 0.00 | 0.00 | 91 | 1018.0 |
| 20260506143106 | 54 | 45 | 0.0 | 1.0 | 0.00 | 0.00 | 0.00 | 92 | 1018.0 |
| 20260506141602 | 52 | 353 | 0.0 | 1.0 | 0.00 | 0.00 | 0.00 | 93 | 1018.0 |
| 20260506141340 | 52 | 351 | 0.0 | 0.0 | 0.00 | 0.00 | 0.00 | 93 | 1017.9 |
| 20260506140311 | 51 | 351 | 0.0 | 0.0 | 0.00 | 0.00 | 0.00 | 93 | 1017.7 |
| 20260506140113 | 51 | 351 | 0.0 | 1.0 | 0.00 | 0.00 | 0.00 | 93 | 1017.8 |
| 20260506135319 | 51 | 351 | 0.0 | 0.0 | 0.00 | 0.00 | 0.00 | 93 | 1017.7 |
| 20260506134503 | 50 | 351 | 0.0 | 1.0 | 0.00 | 0.00 | 0.00 | 93 | 1017.6 |
| 20260506134310 | 50 | 351 | 0.0 | 0.0 | 0.00 | 0.00 | 0.00 | 93 | 1017.6 |
| 20260506133306 | 50 | 351 | 0.0 | 0.0 | 0.00 | 0.00 | 0.00 | 92 | 1017.4 |
| 20260506133103 | 50 | 351 | 0.0 | 1.0 | 0.00 | 0.00 | 0.00 | 92 | 1017.5 |
| 20260506132242 | 50 | 350 | 0.0 | 0.0 | 0.00 | 0.00 | 0.00 | 93 | 1017.5 |
| 20260506131602 | 49 | 352 | 0.0 | 1.0 | 0.00 | 0.00 | 0.00 | 92 | 1017.5 |
| 20260506131303 | 50 | 352 | 0.0 | 0.0 | 0.00 | 0.00 | 0.00 | 91 | 1017.4 |
| 20260506130254 | 51 | 349 | 0.0 | 0.0 | 0.00 | 0.00 | 0.00 | 93 | 1017.3 |
| 20260506130143 | 50 | 349 | 0.0 | 1.0 | 0.00 | 0.00 | 0.00 | 93 | 1017.4 |
| 20260506125247 | 50 | 351 | 0.0 | 0.0 | 0.00 | 0.00 | 0.00 | 92 | 1017.1 |
| 20260506124502 | 49 | 350 | 0.0 | 1.0 | 0.00 | 0.00 | 0.00 | 92 | 1017.2 |
| 20260506124241 | 50 | 350 | 0.0 | 0.0 | 0.00 | 0.00 | 0.00 | 92 | 1017.1 |
| 20260506123213 | 50 | 351 | 0.0 | 0.0 | 0.00 | 0.00 | 0.00 | 91 | 1017.0 |
| 20260506123103 | 49 | 351 | 0.0 | 1.0 | 0.00 | 0.00 | 0.00 | 91 | 1017.0 |
| 20260506122225 | 50 | 351 | 0.0 | 0.0 | 0.00 | 0.00 | 0.00 | 91 | 1017.0 |
| 20260506121505 | 50 | 350 | 0.0 | 0.0 | 0.00 | 0.00 | 0.00 | 91 | 1016.9 |
| 20260506121151 | 50 | 351 | 0.0 | 0.0 | 0.00 | 0.00 | 0.00 | 90 | 1016.9 |
| 20260506120148 | 51 | 350 | 0.0 | 0.0 | 0.00 | 0.00 | 0.00 | 90 | 1016.8 |
| 20260506120002 | 50 | 350 | 0.0 | 1.0 | 0.00 | 0.00 | 0.00 | 91 | 1016.9 |
| 20260506114602 | 50 | 351 | 0.0 | 1.0 | 0.00 | 0.00 | 0.00 | 90 | 1016.8 |
| 20260506114027 | 51 | 351 | 0.0 | 0.0 | 0.00 | 0.00 | 0.00 | 89 | 1016.7 |
| 20260506113012 | 51 | 351 | 0.0 | 0.0 | 0.00 | 0.00 | 0.00 | 89 | 1016.7 |
| 20260506113002 | 50 | 351 | 0.0 | 1.0 | 0.00 | 0.00 | 0.00 | 89 | 1016.8 |
| 20260506111941 | 51 | 351 | 0.0 | 0.0 | 0.00 | 0.00 | 0.00 | 88 | 1016.7 |
| 20260506111602 | 50 | 351 | 0.0 | 1.0 | 0.00 | 0.00 | 0.00 | 86 | 1016.7 |
| 20260506110105 | 51 | 351 | 0.0 | 1.0 | 0.00 | 0.00 | 0.00 | 87 | 1016.7 |
| 20260506105800 | 51 | 351 | 0.0 | 0.0 | 0.00 | 0.00 | 0.00 | 86 | 1016.6 |
| 20260506104749 | 52 | 351 | 0.0 | 0.0 | 0.00 | 0.00 | 0.00 | 86 | 1016.7 |
| 20260506104502 | 51 | 351 | 0.0 | 1.0 | 0.00 | 0.00 | 0.00 | 86 | 1016.8 |
| 20260506103742 | 52 | 351 | 0.0 | 0.0 | 0.00 | 0.00 | 0.00 | 86 | 1016.7 |
| 20260506103103 | 51 | 351 | 0.0 | 1.0 | 0.00 | 0.00 | 0.00 | 87 | 1016.8 |
| 20260506102719 | 51 | 9 | 0.0 | 0.0 | 0.00 | 0.00 | 0.00 | 87 | 1016.7 |
| 20260506101728 | 52 | 10 | 0.0 | 0.0 | 0.00 | 0.00 | 0.00 | 86 | 1016.7 |
| 20260506101503 | 51 | 9 | 0.0 | 1.0 | 0.00 | 0.00 | 0.00 | 86 | 1016.7 |
| 20260506100104 | 51 | 10 | 0.0 | 1.0 | 0.00 | 0.00 | 0.00 | 86 | 1016.7 |
| 20260506095551 | 52 | 10 | 0.0 | 0.0 | 0.00 | 0.00 | 0.00 | 86 | 1016.7 |
| 20260506094523 | 52 | 10 | 0.0 | 0.0 | 0.00 | 0.00 | 0.00 | 86 | 1016.8 |
| 20260506094507 | 52 | 10 | 0.0 | 1.0 | 0.00 | 0.00 | 0.00 | 86 | 1016.9 |
| 20260506093106 | 52 | 33 | 0.0 | 1.0 | 0.00 | 0.00 | 0.00 | 83 | 1016.8 |
| 20260506092339 | 53 | 33 | 0.0 | 3.0 | 0.00 | 0.00 | 0.00 | 82 | 1016.7 |
| 20260506091502 | 53 | 38 | 0.0 | 4.0 | 0.00 | 0.00 | 0.00 | 81 | 1016.8 |
| 20260506091400 | 54 | 37 | 0.0 | 3.0 | 0.00 | 0.00 | 0.00 | 81 | 1016.7 |
| 20260506090359 | 53 | 44 | 0.0 | 2.0 | 0.00 | 0.00 | 0.00 | 84 | 1016.9 |
| 20260506090001 | 52 | 23 | 1.0 | 3.0 | 0.00 | 0.00 | 0.00 | 85 | 1017.0 |